Location: Berkeley
(37.8716°N, 122.2727°W)
Time: 18:14:15
(UTC-07:00)

Amateur Radio Satellites - All Passes

Search period start: 20 October 2017 17:44
Search period end: 21 October 2017 17:44
Location: Berkeley, 37.8716°N, 122.2727°W

Satellite Date Start Highest point End Downlink Frequencies (MHz)
Time Altitude Azimuth
DOVE 4 20 Oct 17:45:07 17:49:16 71° 260° (W) 17:53:35 437.250
XW-2C 20 Oct 17:46:35 17:49:37 23° 71° (ENE) 17:52:38 145.795 - 145.815
SO-50 20 Oct 17:57:16 17:58:35 11° 253° (WSW) 17:59:54 436.795
PCSat 20 Oct 18:16:17 18:21:44 87° 243° (WSW) 18:27:08 145.827
KKS-1 20 Oct 18:20:45 18:25:16 82° 104° (ESE) 18:29:45 437.445
HO-68 20 Oct 18:22:53 18:28:57 31° 63° (ENE) 18:35:02 435.675
KAITUO 1B 20 Oct 18:28:05 18:31:44 55° 75° (ENE) 18:35:24 145.475/437.950
XW-2F 20 Oct 18:30:20 18:34:07 80° 77° (ENE) 18:37:53 145.980 - 146.000
LilacSat-2 20 Oct 18:36:14 18:40:03 72° 259° (W) 18:43:52 437.200
nSIGHT-1 20 Oct 18:37:45 18:38:41 11° 232° (SW) 18:39:36 .
NUDT-PHONESAT 20 Oct 18:41:38 18:45:21 83° 77° (ENE) 18:49:04 437.300
CUTE 1.7 + AOD 2 20 Oct 18:42:21 18:45:41 23° 69° (ENE) 18:49:01 437.475
XW-2D 20 Oct 18:43:02 18:46:48 61° 259° (W) 18:50:34 145.860 - 145.880
CUBESAT XI-V 20 Oct 18:46:26 18:49:13 16° 295° (WNW) 18:52:00 437.345
SEEDS 20 Oct 18:49:33 18:52:12 17° 67° (ENE) 18:54:51 437.485
UWE-3 20 Oct 18:50:39 18:51:12 10° 62° (ENE) 18:51:45 435.000/436.395/437.385
STARS 20 Oct 18:52:35 18:57:02 72° 102° (ESE) 19:01:26 437.465
XW-2B 20 Oct 18:56:41 19:00:17 41° 261° (W) 19:03:55 145.730 - 145.750
AAUSAT CUBESAT 2 20 Oct 19:13:11 19:15:03 13° 66° (ENE) 19:16:56 437.432
CUTE-I 20 Oct 19:16:20 19:21:22 43° 261° (W) 19:26:27 437.470
XW-2C 20 Oct 19:20:47 19:23:42 21° 265° (W) 19:26:37 145.795 - 145.815
YUBILEINY 20 Oct 19:34:11 19:40:06 19° 65° (ENE) 19:46:00 435.215
AO-73 20 Oct 19:38:45 19:41:34 16° 66° (ENE) 19:44:22 145.935
STRAND 1 20 Oct 19:44:43 19:48:45 23° 95° (E) 19:52:46 437.568
CUBEBUG 2 20 Oct 19:45:02 19:49:39 70° 76° (ENE) 19:54:24 437.445
ZACube-1 20 Oct 19:59:40 20:03:40 30° 70° (ENE) 20:07:40 437.345
XW-2A 20 Oct 20:09:05 20:12:30 90° 256° (WSW) 20:15:56 145.665 - 145.685
HO-68 20 Oct 20:09:29 20:16:21 49° 260° (W) 20:23:17 435.675
BEESAT 3 20 Oct 20:16:06 20:17:52 13° 45° (NE) 20:19:37 437.485
CUTE 1.7 + AOD 2 20 Oct 20:17:48 20:21:22 26° 264° (W) 20:24:56 437.475
UWE-3 20 Oct 20:22:17 20:26:55 80° 259° (W) 20:31:37 435.000/436.395/437.385
O/OREOS (USA 219) 20 Oct 20:22:41 20:26:36 29° 103° (ESE) 20:30:33 437.305
SEEDS 20 Oct 20:23:42 20:27:35 36° 263° (W) 20:31:27 437.485
STARS 20 Oct 20:31:58 20:32:43 10° 298° (WNW) 20:33:28 437.465
Oscar 11 20 Oct 20:35:36 20:39:42 43° 73° (ENE) 20:43:49 .
AAUSAT CUBESAT 2 20 Oct 20:46:07 20:50:04 47° 261° (W) 20:54:02 437.432
AO-73 20 Oct 21:12:59 21:17:22 46° 261° (W) 21:21:46 145.935
EO-88 20 Oct 21:15:18 21:16:10 11° 66° (ENE) 21:17:02 145.990 - 145.960
STRAND 1 20 Oct 21:23:15 21:28:01 39° 290° (WNW) 21:32:45 437.568
Max Valier Satellite 20 Oct 21:24:07 21:26:54 20° 70° (ENE) 21:29:41 145.860
CUBEBUG 2 20 Oct 21:25:55 21:26:43 10° 271° (W) 21:27:32 437.445
YUBILEINY 20 Oct 21:29:07 21:37:57 84° 265° (W) 21:46:47 435.215
FO-29 20 Oct 21:34:02 21:40:51 50° 99° (E) 21:48:15 435.910
ZACube-1 20 Oct 21:36:13 21:39:53 24° 265° (W) 21:43:35 437.345
AO-85 20 Oct 21:36:13 21:39:46 22° 50° (NE) 21:43:29 145.980
BEESAT 2 20 Oct 21:36:38 21:40:01 25° 51° (NE) 21:43:20 435.950
BEESAT 3 20 Oct 21:51:54 21:55:49 63° 242° (WSW) 21:59:38 437.485
O/OREOS (USA 219) 20 Oct 22:02:12 22:05:58 25° 299° (WNW) 22:09:46 437.305
DELFI C3 20 Oct 22:09:22 22:13:14 71° 259° (W) 22:17:09 145.870
Oscar 11 20 Oct 22:13:38 22:16:01 14° 268° (W) 22:18:25 .
ESTCUBE 1 20 Oct 22:43:28 22:46:01 15° 65° (ENE) 22:48:34 437.505/2401.250
EO-88 20 Oct 22:45:53 22:49:23 44° 261° (W) 22:52:53 145.990 - 145.960
Max Valier Satellite 20 Oct 22:57:34 23:00:34 23° 264° (W) 23:03:36 145.860
UNISAT 6 20 Oct 22:58:21 23:02:58 76° 101° (E) 23:07:27 437.425
TIGRISAT 20 Oct 23:13:00 23:17:37 81° 285° (WNW) 23:22:05 435.000
BEESAT 2 20 Oct 23:14:17 23:17:40 26° 247° (WSW) 23:21:01 435.950
AO-85 20 Oct 23:15:53 23:20:20 45° 244° (WSW) 23:25:06 145.980
FO-29 20 Oct 23:19:37 23:25:36 32° 293° (WNW) 23:32:03 435.910
YUBILEINY 20 Oct 23:29:09 23:33:18 14° 283° (WNW) 23:37:28 435.215
LO-87 20 Oct 23:33:21 23:36:56 78° 77° (ENE) 23:40:33 145.935 - 145.965
PRISM 20 Oct 23:53:04 23:57:08 59° 286° (WNW) 00:01:12 437.425
POLYITAN 1 20 Oct 23:55:16 23:56:24 11° 91° (E) 23:57:32 437.675
RS-15 21 Oct 00:02:16 00:13:16 41° 107° (ESE) 00:24:19 29.354- 29.394
VELOX 1 21 Oct 00:06:10 00:09:17 19° 67° (ENE) 00:12:25 145.980
QB50P2 21 Oct 00:13:43 00:16:59 21° 95° (E) 00:20:13 145.880/145.840
NANOSAT C BR1 21 Oct 00:16:35 00:19:30 18° 94° (E) 00:22:23 145.865
ESTCUBE 1 21 Oct 00:18:03 00:22:23 48° 260° (W) 00:26:44 437.505/2401.250
DUCHIFAT 1 21 Oct 00:26:45 00:29:55 20° 95° (E) 00:33:03 145.980
UNISAT 6 21 Oct 00:38:22 00:38:57 10° 298° (WNW) 00:39:31 437.425
AIST 2D 21 Oct 00:38:29 00:41:54 58° 284° (WNW) 00:45:18 435.315
SPROUT 21 Oct 00:51:03 00:55:19 89° 267° (W) 00:59:38 437.525
DX 1 21 Oct 01:09:58 01:13:24 23° 68° (ENE) 01:16:50 434.975-435.025
EO-79 21 Oct 01:23:21 01:27:34 63° 286° (WNW) 01:31:44 145.935-145.965
POLYITAN 1 21 Oct 01:28:19 01:32:30 55° 286° (WNW) 01:36:37 437.675
Oscar 19 21 Oct 01:28:39 01:31:09 14° 91° (E) 01:33:38 437.125/150
UKube-1 21 Oct 01:32:24 01:35:58 26° 69° (ENE) 01:39:32 .
50 SAT 21 Oct 01:39:25 01:42:36 59° 76° (ENE) 01:45:51 437.505
VELOX 1 21 Oct 01:41:29 01:45:28 34° 262° (W) 01:49:29 145.980
QB50P2 21 Oct 01:49:04 01:52:44 29° 290° (WNW) 01:56:23 145.880/145.840
NANOSAT C BR1 21 Oct 01:51:26 01:55:16 33° 289° (WNW) 01:59:03 145.865
DUCHIFAT 1 21 Oct 02:01:53 02:05:34 29° 289° (WNW) 02:09:13 145.980
Gurwin Techsat 1B 21 Oct 02:04:18 02:08:25 22° 94° (E) 02:12:30 435.225
BUGSAT 1 21 Oct 02:06:19 02:10:33 74° 102° (ESE) 02:14:42 437.445
RS-15 21 Oct 02:13:11 02:25:18 60° 307° (NW) 02:37:26 29.354- 29.394
MOZHAYETS 4 21 Oct 02:21:29 02:23:33 13° 64° (ENE) 02:25:38
DX 1 21 Oct 02:45:44 02:49:25 27° 263° (W) 02:53:08 434.975-435.025
ITUPSAT 1 21 Oct 02:55:32 02:59:34 27° 68° (ENE) 03:03:37 437.325
M-CUBED/EXP-1 PRIME 21 Oct 02:55:44 02:59:21 75° 107° (ESE) 03:03:15 437.505
Oscar 19 21 Oct 03:05:48 03:10:52 63° 286° (WNW) 03:15:54 437.125/150
AO-7 21 Oct 03:05:51 03:10:11 15° 91° (E) 03:14:29 .
NO-84 21 Oct 03:07:39 03:11:54 67° 132° (SE) 03:16:09 435.350 FM
UKube-1 21 Oct 03:08:23 03:11:53 24° 264° (W) 03:15:24 .
BEESAT 21 Oct 03:10:04 03:14:29 39° 71° (ENE) 03:18:56 436.000
ITAMSAT 1 21 Oct 03:41:35 03:44:43 16° 92° (E) 03:47:48 435.822/435.867
Gurwin Techsat 1B 21 Oct 03:43:30 03:48:28 41° 290° (WNW) 03:53:26 435.225
MOZHAYETS 4 21 Oct 03:55:34 04:00:09 62° 259° (W) 04:04:46
CUBESAT XI-V 21 Oct 04:09:12 04:13:28 37° 71° (ENE) 04:17:43 437.345
RS-15 21 Oct 04:32:08 04:41:10 22° 336° (NNW) 04:50:07 29.354- 29.394
ITUPSAT 1 21 Oct 04:33:08 04:37:16 29° 263° (W) 04:41:27 437.325
NO-84 21 Oct 04:46:20 04:49:39 21° 329° (NNW) 04:52:55 435.350 FM
BEESAT 21 Oct 04:48:54 04:52:21 20° 266° (W) 04:55:50 436.000
AO-7 21 Oct 04:55:34 05:03:56 85° 108° (ESE) 05:12:16 .
KKS-1 21 Oct 05:16:42 05:21:03 59° 74° (ENE) 05:25:25 437.445
ITAMSAT 1 21 Oct 05:19:21 05:24:30 57° 287° (WNW) 05:29:36 435.822/435.867
DOVE 4 21 Oct 05:44:44 05:49:25 37° 97° (E) 05:54:14 437.250
STARS 21 Oct 05:47:05 05:51:18 49° 73° (ENE) 05:55:34 437.465
CUBESAT XI-V 21 Oct 05:47:39 05:50:55 19° 266° (W) 05:54:13 437.345
LilacSat-2 21 Oct 06:12:41 06:14:26 13° 92° (E) 06:16:12 437.200
XW-2D 21 Oct 06:18:21 06:20:29 15° 93° (E) 06:22:37 145.860 - 145.880
SO-50 21 Oct 06:26:55 06:30:56 33° 114° (ESE) 06:34:59 436.795
XW-2B 21 Oct 06:31:14 06:34:04 20° 95° (E) 06:36:53 145.730 - 145.750
O/OREOS (USA 219) 21 Oct 06:33:53 06:38:16 42° 65° (ENE) 06:42:36 437.305
AO-7 21 Oct 06:49:57 06:55:40 21° 306° (NW) 07:01:25 .
RS-15 21 Oct 06:52:19 07:00:14 19° 14° (NNE) 07:07:55 29.354- 29.394
XW-2C 21 Oct 06:53:57 06:57:30 41° 99° (E) 07:01:02 145.795 - 145.815
KKS-1 21 Oct 06:56:37 06:57:56 11° 269° (W) 06:59:15 437.445
STRAND 1 21 Oct 06:58:48 07:03:06 28° 68° (ENE) 07:07:25 437.568
JUGNU 21 Oct 07:08:30 07:10:39 12° 175° (S) 07:12:48 437.505
PCSat 21 Oct 07:15:24 07:18:26 15° 104° (ESE) 07:21:28 145.827
DOVE 4 21 Oct 07:22:49 07:26:51 25° 291° (WNW) 07:31:00 437.250
STARS 21 Oct 07:25:49 07:27:53 13° 268° (W) 07:29:59 437.465
KAITUO 1B 21 Oct 07:34:25 07:38:06 77° 284° (WNW) 07:41:47 145.475/437.950
CUTE-I 21 Oct 07:34:41 07:40:06 86° 103° (ESE) 07:45:29 437.470
XW-2F 21 Oct 07:37:58 07:41:34 51° 285° (WNW) 07:45:11 145.980 - 146.000
CUBEBUG 2 21 Oct 07:38:57 07:41:59 17° 92° (E) 07:44:57 437.445
HO-68 21 Oct 07:39:01 07:45:37 37° 98° (E) 07:52:08 435.675
LilacSat-2 21 Oct 07:45:23 07:48:50 35° 287° (WNW) 07:52:16 437.200
NUDT-PHONESAT 21 Oct 07:47:06 07:50:40 52° 285° (WNW) 07:54:13 437.300
FO-29 21 Oct 07:48:41 07:51:06 13° 59° (ENE) 07:53:35 435.910
XW-2D 21 Oct 07:51:23 07:54:43 31° 288° (WNW) 07:58:02 145.860 - 145.880
CUTE 1.7 + AOD 2 21 Oct 08:03:26 08:07:34 56° 100° (E) 08:11:41 437.475
XW-2B 21 Oct 08:05:12 08:08:09 22° 290° (WNW) 08:11:06 145.730 - 145.750
SO-50 21 Oct 08:07:43 08:11:25 25° 311° (NW) 08:15:08 436.795
SEEDS 21 Oct 08:08:47 08:12:41 38° 98° (E) 08:16:34 437.485
O/OREOS (USA 219) 21 Oct 08:14:22 08:17:17 17° 260° (W) 08:20:10 437.305
UWE-3 21 Oct 08:14:30 08:18:04 23° 94° (E) 08:21:34 435.000/436.395/437.385
XW-2C 21 Oct 08:29:50 08:31:16 12° 294° (WNW) 08:32:43 145.795 - 145.815
AAUSAT CUBESAT 2 21 Oct 08:29:52 08:33:27 28° 96° (E) 08:37:00 437.432
YUBILEINY 21 Oct 08:33:53 08:40:09 23° 81° (E) 08:46:25 435.215
STRAND 1 21 Oct 08:37:35 08:42:08 32° 263° (W) 08:46:44 437.568
PCSat 21 Oct 08:55:51 09:01:13 65° 299° (WNW) 09:06:38 145.827
JUGNU 21 Oct 08:56:42 08:58:46 12° 186° (S) 09:00:49 437.505
AO-73 21 Oct 09:02:50 09:06:51 36° 97° (E) 09:10:45 145.935
XW-2A 21 Oct 09:04:50 09:08:08 64° 284° (WNW) 09:11:25 145.665 - 145.685
RS-15 21 Oct 09:05:50 09:17:09 45° 46° (NE) 09:27:50 29.354- 29.394
CUBEBUG 2 21 Oct 09:14:26 09:18:45 40° 288° (WNW) 09:22:56 437.445
CUTE-I 21 Oct 09:17:24 09:19:21 12° 300° (WNW) 09:21:18 437.470
ZACube-1 21 Oct 09:25:18 09:29:41 80° 105° (ESE) 09:33:55 437.345
HO-68 21 Oct 09:26:41 09:33:16 40° 294° (WNW) 09:39:50 435.675
FO-29 21 Oct 09:30:12 09:35:23 73° 258° (WSW) 09:40:57 435.910
SRMSAT 21 Oct 09:34:02 09:35:45 11° 172° (S) 09:37:28 437.500
nSIGHT-1 21 Oct 09:36:04 09:39:09 48° 136° (SE) 09:42:14 .
CUTE 1.7 + AOD 2 21 Oct 09:41:30 09:42:53 11° 295° (WNW) 09:44:15 437.475
NO-84 21 Oct 09:43:21 09:46:25 22° 31° (NNE) 09:49:18 435.350 FM
SEEDS 21 Oct 09:45:28 09:48:02 16° 293° (WNW) 09:50:35 437.485
DELFI C3 21 Oct 09:48:51 09:51:19 16° 93° (E) 09:53:46 145.870
UWE-3 21 Oct 09:50:39 09:54:29 28° 290° (WNW) 09:58:12 435.000/436.395/437.385
UNISAT 6 21 Oct 09:54:42 09:59:12 53° 74° (ENE) 10:03:47 437.425
Oscar 11 21 Oct 10:00:10 10:04:27 69° 285° (WNW) 10:08:43 .
AAUSAT CUBESAT 2 21 Oct 10:05:37 10:08:42 21° 291° (WNW) 10:11:47 437.432
TIGRISAT 21 Oct 10:09:04 10:13:41 70° 75° (ENE) 10:18:22 435.000
ISS 21 Oct 10:11:28 10:14:43 78° 321° (NW) 10:17:59 437.550
EO-88 21 Oct 10:16:55 10:19:13 16° 94° (E) 10:21:31 145.990 - 145.960
YUBILEINY 21 Oct 10:27:25 10:36:02 69° 279° (W) 10:44:45 435.215
Max Valier Satellite 21 Oct 10:28:25 10:31:46 32° 98° (E) 10:35:04 145.860
AO-73 21 Oct 10:39:53 10:42:45 17° 293° (WNW) 10:45:33 145.935
PRISM 21 Oct 10:40:00 10:44:01 72° 76° (ENE) 10:48:04 437.425
PCSat 21 Oct 10:44:29 10:45:41 11° 319° (NW) 10:46:53 145.827
QB50P2 21 Oct 11:05:35 11:07:43 14° 65° (ENE) 11:09:52 145.880/145.840
NANOSAT C BR1 21 Oct 11:08:25 11:09:49 11° 64° (ENE) 11:11:13 145.865
AIST 2D 21 Oct 11:10:43 11:13:52 32° 73° (ENE) 11:17:01 435.315
nSIGHT-1 21 Oct 11:13:09 11:15:36 20° 333° (NNW) 11:18:02 .
DUCHIFAT 1 21 Oct 11:17:54 11:19:50 13° 65° (ENE) 11:21:45 145.980
RS-15 21 Oct 11:18:33 11:29:54 56° 249° (WSW) 11:40:40 29.354- 29.394
NO-84 21 Oct 11:20:26 11:23:59 43° 231° (SW) 11:27:14 435.350 FM
SRMSAT 21 Oct 11:21:31 11:24:02 13° 182° (S) 11:26:33 437.500
DELFI C3 21 Oct 11:22:33 11:26:07 33° 288° (WNW) 11:29:41 145.870
UNISAT 6 21 Oct 11:33:46 11:36:12 14° 269° (W) 11:38:38 437.425
BEESAT 3 21 Oct 11:39:32 11:43:02 30° 114° (ESE) 11:46:35 437.485
EO-88 21 Oct 11:49:47 11:52:52 26° 288° (WNW) 11:55:55 145.990 - 145.960
ISS 21 Oct 11:49:49 11:51:38 14° 338° (NNW) 11:53:28 437.550
TIGRISAT 21 Oct 11:50:00 11:50:48 10° 271° (W) 11:51:36 435.000
Max Valier Satellite 21 Oct 12:03:19 12:05:16 14° 292° (WNW) 12:07:13 145.860
ESTCUBE 1 21 Oct 12:12:05 12:16:16 38° 98° (E) 12:20:26 437.505/2401.250
EO-79 21 Oct 12:13:17 12:17:32 73° 75° (ENE) 12:21:48 145.935-145.965
POLYITAN 1 21 Oct 12:18:20 12:22:37 84° 75° (ENE) 12:26:55 437.675
YUBILEINY 21 Oct 12:31:44 12:34:37 12° 300° (WNW) 12:37:30 435.215
LO-87 21 Oct 12:35:00 12:38:36 63° 284° (WNW) 12:42:09 145.935 - 145.965
QB50P2 21 Oct 12:38:55 12:43:03 49° 260° (W) 12:47:13 145.880/145.840
SPROUT 21 Oct 12:39:22 12:42:15 17° 93° (E) 12:45:07 437.525
NANOSAT C BR1 21 Oct 12:40:47 12:44:58 59° 259° (W) 12:49:12 145.865
Oscar 19 21 Oct 12:43:31 12:46:58 18° 64° (ENE) 12:50:26 437.125/150
AIST 2D 21 Oct 12:45:39 12:47:07 12° 267° (W) 12:48:36 435.315
DUCHIFAT 1 21 Oct 12:50:53 12:55:00 51° 260° (W) 12:59:11 145.980
BUGSAT 1 21 Oct 12:53:52 12:57:45 38° 72° (ENE) 13:01:42 437.445
BEESAT 2 21 Oct 13:02:31 13:06:30 78° 119° (ESE) 13:10:33 435.950
BEESAT 3 21 Oct 13:17:25 13:20:36 22° 310° (NW) 13:23:48 437.485
Gurwin Techsat 1B 21 Oct 13:23:30 13:28:06 31° 68° (ENE) 13:32:42 435.225
AO-85 21 Oct 13:28:50 13:32:42 86° 300° (WNW) 13:36:40 145.980
VELOX 1 21 Oct 13:32:33 13:36:52 47° 100° (E) 13:41:09 145.980
M-CUBED/EXP-1 PRIME 21 Oct 13:40:18 13:43:41 65° 71° (ENE) 13:46:56 437.505
ESTCUBE 1 21 Oct 13:49:41 13:52:46 19° 293° (WNW) 13:55:50 437.505/2401.250
AO-7 21 Oct 14:03:01 14:08:48 21° 54° (NE) 14:14:34 .
SPROUT 21 Oct 14:14:18 14:18:13 35° 288° (WNW) 14:22:06 437.525
Oscar 19 21 Oct 14:20:50 14:25:51 51° 260° (W) 14:30:53 437.125/150
BUGSAT 1 21 Oct 14:30:44 14:33:14 15° 267° (W) 14:35:47 437.445
50 SAT 21 Oct 14:31:52 14:35:10 71° 103° (ESE) 14:38:26 437.505
DX 1 21 Oct 14:34:41 14:38:59 55° 101° (E) 14:43:16 434.975-435.025
BEESAT 2 21 Oct 14:43:25 14:44:45 11° 317° (NW) 14:46:05 435.950
UKube-1 21 Oct 14:55:57 15:00:14 59° 101° (ESE) 15:04:29 .
ITAMSAT 1 21 Oct 14:57:38 15:01:30 22° 65° (ENE) 15:05:23 435.822/435.867
SO-50 21 Oct 14:59:42 15:03:16 22° 48° (NE) 15:06:52 436.795
Gurwin Techsat 1B 21 Oct 15:03:18 15:07:57 31° 263° (W) 15:12:37 435.225
ISS 21 Oct 15:05:32 15:07:03 13° 20° (NNE) 15:08:34 437.550
VELOX 1 21 Oct 15:10:20 15:12:52 15° 295° (WNW) 15:15:24 145.980
BEESAT 21 Oct 15:14:25 15:15:36 11° 91° (E) 15:16:47 436.000
AO-7 21 Oct 15:52:15 16:00:34 84° 253° (WSW) 16:08:55 .
MOZHAYETS 4 21 Oct 15:52:29 15:56:39 34° 97° (E) 16:00:46
nSIGHT-1 21 Oct 16:04:40 16:07:35 31° 33° (NNE) 16:10:29 .
PCSat 21 Oct 16:04:50 16:06:25 11° 41° (NE) 16:07:58 145.827
CUBESAT XI-V 21 Oct 16:10:35 16:10:55 10° 90° (E) 16:11:15 437.345
DX 1 21 Oct 16:12:40 16:14:40 13° 296° (WNW) 16:16:40 434.975-435.025
UKube-1 21 Oct 16:34:07 16:35:43 12° 297° (WNW) 16:37:18 .
ITUPSAT 1 21 Oct 16:34:26 16:39:15 82° 102° (ESE) 16:44:02 437.325
ITAMSAT 1 21 Oct 16:35:43 16:40:37 44° 261° (W) 16:45:36 435.822/435.867
SO-50 21 Oct 16:39:31 16:43:54 44° 244° (WSW) 16:48:20 436.795
ISS 21 Oct 16:40:49 16:44:04 60° 38° (NE) 16:47:18 437.550
BEESAT 21 Oct 16:49:03 16:53:48 69° 286° (WNW) 16:58:32 436.000
DOVE 4 21 Oct 16:49:17 16:52:44 25° 69° (ENE) 16:56:19 437.250
KKS-1 21 Oct 17:11:07 17:13:08 13° 92° (E) 17:15:10 437.445
CUTE-I 21 Oct 17:17:51 17:20:38 15° 61° (ENE) 17:23:26 437.470
MOZHAYETS 4 21 Oct 17:30:08 17:33:33 21° 293° (WNW) 17:36:58
XW-2C 21 Oct 17:34:17 17:36:42 16° 68° (ENE) 17:39:06 145.795 - 145.815
STARS 21 Oct 17:41:39 17:41:41 10° 91° (E) 17:41:43 437.465
